Location: Kouchibouguac National Park
(46.8081°N, 64.9088°W)
Time: 10:03:46
(UTC-03:00)

Amateur Radio Satellites - All Passes

Search period start: 26 April 2015 09:33
Search period end: 27 April 2015 09:33
Location: Kouchibouguac National Park, 46.8081°N, 64.9088°W

Satellite Date Start Highest point End Downlink Frequencies (MHz)
Time Altitude Azimuth
GOMX 1 26 Apr 09:46:12 09:51:16 60° 100° (E) 09:56:35 467.674
O/OREOS (USA 219) 26 Apr 09:47:05 09:50:25 20° 258° (WSW) 09:53:36 437.305
COMPASS 1 26 Apr 09:58:18 10:02:14 37° 97° (E) 10:06:08 437.405
BRITE-PL 26 Apr 10:01:29 10:06:31 72° 286° (WNW) 10:11:55 437.365/2234.400
ANTELSAT 26 Apr 10:06:16 10:10:04 27° 65° (ENE) 10:14:01 437.575/2403.000
QB50P1 26 Apr 10:08:28 10:10:34 14° 61° (ENE) 10:12:51 145.935-145.965
DELFI C3 26 Apr 10:13:08 10:15:42 17° 90° (E) 10:18:23 145.870
AIST 2 26 Apr 10:15:49 10:16:04 10° 20° (NNE) 10:16:23 435.215
Oscar 11 26 Apr 10:16:55 10:20:30 25° 93° (E) 10:24:08 145.826/435.025
PCSat 26 Apr 10:17:37 10:22:45 41° 313° (NW) 10:27:53 145.827
ZACube-1 26 Apr 10:19:17 10:22:14 17° 88° (E) 10:25:18 437.345
DOVE 4 26 Apr 10:20:08 10:25:16 84° 105° (ESE) 10:30:34 437.250
SEEDS 26 Apr 10:24:30 10:28:48 86° 102° (ESE) 10:33:01 437.485
QB50P2 26 Apr 10:33:18 10:36:40 24° 66° (ENE) 10:40:09 145.880/145.840
CANX-2 26 Apr 10:33:59 10:38:13 58° 287° (WNW) 10:42:24 2200.000
YUBILEINY 26 Apr 10:39:13 10:47:00 38° 85° (E) 10:54:55 435.215
AAUSAT CUBESAT 2 26 Apr 10:40:17 10:44:31 90° 287° (WNW) 10:48:41 437.432
CUTE 1.7 + AOD 2 26 Apr 10:43:04 10:47:15 51° 288° (WNW) 10:51:23 437.475
BEESAT 3 26 Apr 10:45:46 10:49:20 27° 40° (NE) 10:52:53 437.485
BEESAT 2 26 Apr 10:47:56 10:51:25 25° 39° (NE) 10:54:55 435.950
NANOSAT C BR1 26 Apr 10:50:32 10:54:20 34° 69° (ENE) 10:58:11 145.865
DX 1 26 Apr 10:51:47 10:54:57 20° 92° (E) 10:58:12 434.975-435.025
POPSAT HIP 1 26 Apr 10:53:55 10:57:47 36° 69° (ENE) 11:01:43 437.405
TIGRISAT 26 Apr 10:55:20 10:59:52 75° 74° (ENE) 11:04:32 435.000
CUBEBUG 2 26 Apr 10:55:49 11:00:33 56° 100° (E) 11:05:14 437.445
HO-68 26 Apr 10:58:11 11:05:19 65° 292° (WNW) 11:12:23 435.675
50 SAT 26 Apr 10:58:17 10:59:21 11° 86° (E) 11:00:38 437.505
UNISAT 6 26 Apr 10:59:54 11:04:27 84° 75° (ENE) 11:09:08 437.425
CINEMA 3 26 Apr 11:00:24 11:05:24 77° 284° (WNW) 11:10:26 145.822/145.860
AIST 1 26 Apr 11:01:25 11:03:26 13° 63° (ENE) 11:05:38
BUGSAT 1 26 Apr 11:15:28 11:19:14 42° 71° (ENE) 11:23:05 437.445
UWE-3 26 Apr 11:20:44 11:25:28 81° 103° (ESE) 11:30:09 435.000/436.395/437.385
POLYITAN 1 26 Apr 11:23:33 11:27:46 76° 75° (ENE) 11:32:03 437.675
DUCHIFAT 1 26 Apr 11:23:50 11:28:01 74° 75° (ENE) 11:32:16 145.980
GOMX 1 26 Apr 11:25:09 11:29:03 22° 296° (WNW) 11:32:59 467.674
ESTCUBE 1 26 Apr 11:25:16 11:27:02 12° 86° (E) 11:29:01 437.505/2401.250
Cosmos 2491 26 Apr 11:26:36 11:35:08 54° 269° (W) 11:43:35 435.465 / 435.565
FUNcube-1 26 Apr 11:28:44 11:33:22 77° 102° (ESE) 11:37:56 145.935
UKube-1 26 Apr 11:33:19 11:37:32 48° 100° (E) 11:41:44 .
COMPASS 1 26 Apr 11:34:22 11:37:45 23° 294° (WNW) 11:41:03 437.405
QB50P1 26 Apr 11:41:45 11:45:57 71° 258° (WSW) 11:50:13 145.935-145.965
BRITE-PL 26 Apr 11:42:24 11:44:22 12° 302° (WNW) 11:46:08 437.365/2234.400
ANTELSAT 26 Apr 11:42:27 11:46:43 38° 264° (W) 11:51:04 437.575/2403.000
HUMSAT D 26 Apr 11:44:35 11:48:54 57° 100° (E) 11:53:10 437.325/437.525
DELFI C3 26 Apr 11:47:14 11:51:09 46° 288° (WNW) 11:55:00 145.870
AIST 2 26 Apr 11:52:02 11:55:57 33° 43° (NE) 11:59:49 435.215
Oscar 11 26 Apr 11:52:47 11:56:47 35° 291° (WNW) 12:00:43 145.826/435.025
ZACube-1 26 Apr 11:54:28 11:59:02 59° 287° (WNW) 12:03:33 437.345
ISS 26 Apr 11:58:21 12:00:28 17° 137° (SE) 12:02:40 145.825
DOVE 4 26 Apr 11:59:19 12:02:28 16° 299° (WNW) 12:05:32 437.250
VELOX 1 26 Apr 12:00:42 12:05:00 47° 99° (E) 12:09:18 145.980
SEEDS 26 Apr 12:02:22 12:04:00 12° 300° (WNW) 12:05:26 437.485
CUBEBUG 1 26 Apr 12:04:33 12:08:13 26° 94° (E) 12:11:58 437.445
PCSat 26 Apr 12:05:13 12:07:45 13° 337° (NNW) 12:10:10 145.827
QB50P2 26 Apr 12:08:30 12:12:26 36° 263° (W) 12:16:23 145.880/145.840
AAUSAT CUBESAT 2 26 Apr 12:18:16 12:19:31 11° 301° (WNW) 12:20:35 437.432
AISAT 26 Apr 12:18:46 12:23:14 75° 103° (ESE) 12:27:42 437.250
SO-50 26 Apr 12:22:45 12:27:22 62° 122° (ESE) 12:32:09 436.795
BEESAT 3 26 Apr 12:23:35 12:27:29 42° 240° (WSW) 12:31:19 437.485
BEESAT 2 26 Apr 12:25:46 12:29:46 48° 239° (WSW) 12:33:41 435.950
NANOSAT C BR1 26 Apr 12:26:45 12:30:16 25° 267° (W) 12:33:44 145.865
DX 1 26 Apr 12:27:16 12:31:27 46° 290° (WNW) 12:35:38 434.975-435.025
POPSAT HIP 1 26 Apr 12:30:24 12:33:49 23° 267° (W) 12:37:10 437.405
50 SAT 26 Apr 12:30:41 12:34:45 72° 285° (WNW) 12:38:45 437.505
CUBEBUG 2 26 Apr 12:33:19 12:36:52 21° 297° (WNW) 12:40:19 437.445
TIGRISAT 26 Apr 12:34:56 12:37:16 13° 274° (W) 12:39:25 435.000
YUBILEINY 26 Apr 12:34:57 12:43:35 55° 287° (WNW) 12:52:14 435.215
AIST 1 26 Apr 12:37:24 12:41:39 67° 264° (W) 12:45:53
CINEMA 3 26 Apr 12:39:43 12:41:52 13° 302° (WNW) 12:43:50 145.822/145.860
UNISAT 6 26 Apr 12:40:13 12:42:00 12° 275° (W) 12:43:31 437.425
HO-68 26 Apr 12:47:37 12:51:51 16° 312° (NW) 12:55:48 435.675
TISAT 1 26 Apr 12:49:51 12:52:44 18° 91° (E) 12:55:43 437.305
Cosmos 2504 26 Apr 12:50:01 12:56:48 27° 81° (E) 13:03:47 435.465 / 435.565
BUGSAT 1 26 Apr 12:52:06 12:54:58 18° 269° (W) 12:57:45 437.445
RS-15 26 Apr 12:55:33 12:59:21 13° 96° (E) 13:04:06 29.354- 29.394
UWE-3 26 Apr 12:58:45 13:01:26 15° 300° (WNW) 13:03:56 435.000/436.395/437.385
ESTCUBE 1 26 Apr 13:00:03 13:04:33 77° 286° (WNW) 13:09:01 437.505/2401.250
POLYITAN 1 26 Apr 13:02:51 13:04:19 11° 274° (W) 13:05:35 437.675
DUCHIFAT 1 26 Apr 13:02:52 13:04:28 12° 274° (W) 13:05:49 145.980
Oscar 19 26 Apr 13:05:34 13:10:12 36° 67° (ENE) 13:14:57 437.125/150
FUNcube-1 26 Apr 13:06:29 13:09:08 15° 300° (WNW) 13:11:37 145.935
UKube-1 26 Apr 13:10:11 13:13:23 20° 297° (WNW) 13:16:31 .
HUMSAT D 26 Apr 13:21:20 13:24:16 17° 297° (WNW) 13:27:03 437.325/437.525
SPROUT 26 Apr 13:22:08 13:26:21 48° 99° (E) 13:30:34 437.525
AO-7 26 Apr 13:26:16 13:29:16 13° 35° (NE) 13:32:35 29.400- 29.500
Cosmos 2491 26 Apr 13:28:30 13:30:06 10° 290° (WNW) 13:30:59 435.465 / 435.565
AIST 2 26 Apr 13:30:41 13:34:32 34° 242° (WSW) 13:38:18 435.215
ISS 26 Apr 13:33:13 13:36:28 88° 333° (NNW) 13:39:45 145.825
VELOX 1 26 Apr 13:37:55 13:41:18 21° 296° (WNW) 13:44:35 145.980
CUBEBUG 1 26 Apr 13:40:42 13:44:39 34° 292° (WNW) 13:48:34 437.445
ITAMSAT 1 26 Apr 13:42:22 13:46:35 27° 63° (ENE) 13:50:53 435.822/435.867
BEESAT 26 Apr 13:45:45 13:47:37 12° 86° (E) 13:49:44 436.000
SWISSCUBE 26 Apr 13:47:55 13:50:22 14° 87° (E) 13:53:02 437.505
AISAT 26 Apr 13:56:48 13:59:19 15° 300° (WNW) 14:01:41 437.250
SO-50 26 Apr 14:04:15 14:08:18 27° 324° (NW) 14:12:26 436.795
Gurwin Techsat 1B 26 Apr 14:15:35 14:20:34 43° 68° (ENE) 14:25:36 435.225
TISAT 1 26 Apr 14:24:42 14:28:49 48° 289° (WNW) 14:32:55 437.305
YUBILEINY 26 Apr 14:38:49 14:43:04 13° 314° (NW) 14:46:50 435.215
ESTCUBE 1 26 Apr 14:39:40 14:40:43 11° 303° (WNW) 14:41:32 437.505/2401.250
Cosmos 2504 26 Apr 14:40:34 14:49:30 78° 281° (W) 14:58:15 435.465 / 435.565
Oscar 19 26 Apr 14:44:55 14:49:35 34° 265° (W) 14:54:17 437.125/150
HORYU 2 26 Apr 14:51:00 14:54:07 19° 62° (ENE) 14:57:23 437.375
ITUPSAT 1 26 Apr 14:51:08 14:55:47 50° 100° (E) 15:00:25 437.325
RS-15 26 Apr 14:58:56 15:09:27 61° 117° (ESE) 15:20:19 29.354- 29.394
SPROUT 26 Apr 14:58:58 15:02:09 20° 296° (WNW) 15:05:14 437.525
JAS-2 26 Apr 15:04:12 15:10:42 31° 61° (ENE) 15:17:05 435.910
KKS-1 26 Apr 15:04:57 15:07:22 15° 88° (E) 15:09:58 437.445
GONETS M04 26 Apr 15:08:06 15:10:46 12° 71° (ENE) 15:14:05
ISS 26 Apr 15:10:03 15:13:05 35° 353° (N) 15:16:09 145.825
AO-7 26 Apr 15:12:26 15:20:00 43° 58° (ENE) 15:27:41 29.400- 29.500
ITAMSAT 1 26 Apr 15:20:52 15:25:52 47° 261° (W) 15:30:53 435.822/435.867
BEESAT 26 Apr 15:21:24 15:26:12 83° 285° (WNW) 15:30:58 436.000
SWISSCUBE 26 Apr 15:24:06 15:28:52 73° 286° (WNW) 15:33:36 437.505
PCSat 26 Apr 15:36:25 15:39:42 16° 29° (NNE) 15:43:04 145.827
SO-50 26 Apr 15:49:11 15:50:33 11° 348° (NNW) 15:51:51 436.795
Gurwin Techsat 1B 26 Apr 15:56:06 16:00:44 29° 267° (W) 16:05:17 435.225
STARS 26 Apr 15:56:30 16:00:25 30° 95° (E) 16:04:23 437.465
HORYU 2 26 Apr 16:26:01 16:30:25 54° 259° (W) 16:34:53 437.375
ITUPSAT 1 26 Apr 16:29:41 16:33:23 22° 297° (WNW) 16:36:59 437.325
Cosmos 2504 26 Apr 16:38:11 16:44:35 20° 305° (NW) 16:50:31 435.465 / 435.565
KKS-1 26 Apr 16:40:03 16:44:32 66° 287° (WNW) 16:48:59 437.445
CUSAT 1 26 Apr 16:41:49 16:43:35 13° 79° (ENE) 16:45:45 437.405
ISS 26 Apr 16:46:46 16:49:54 42° 13° (NNE) 16:53:02 145.825
JAS-2 26 Apr 16:47:25 16:55:17 71° 258° (WSW) 17:02:49 435.910
Cubesat XI-IV 26 Apr 16:50:55 16:52:44 12° 54° (NE) 16:54:47 437.490
GONETS M04 26 Apr 16:57:21 17:05:52 60° 92° (E) 17:14:32
BEESAT 26 Apr 17:01:16 17:03:22 13° 303° (WNW) 17:05:16 436.000
SWISSCUBE 26 Apr 17:04:30 17:05:57 11° 304° (NW) 17:07:12 437.505
AO-7 26 Apr 17:04:39 17:12:43 53° 259° (W) 17:20:47 29.400- 29.500
RS-15 26 Apr 17:11:37 17:22:15 52° 323° (NW) 17:33:11 29.354- 29.394
Cosmos 2499 26 Apr 17:12:26 17:16:07 14° 74° (ENE) 17:20:20 435.465 / 435.565
MOZHAYETS 4 26 Apr 17:13:35 17:17:13 23° 92° (E) 17:20:55
PCSat 26 Apr 17:18:58 17:24:20 58° 52° (NE) 17:29:42 145.827
DANDE 26 Apr 17:25:28 17:28:22 23° 86° (E) 17:32:04 436.750
SO-50 26 Apr 17:32:02 17:33:18 11° 12° (NNE) 17:34:39 436.795
STARS 26 Apr 17:32:56 17:36:52 31° 293° (WNW) 17:40:47 437.465
VERMONT LUNAR 26 Apr 18:01:40 18:04:22 22° 167° (SSE) 18:07:03 437.305
CUTE-I 26 Apr 18:16:52 18:22:03 55° 70° (ENE) 18:27:16 437.470
CUSAT 1 26 Apr 18:21:25 18:25:15 63° 285° (WNW) 18:30:27 437.405
ISS 26 Apr 18:23:09 18:26:21 53° 212° (SSW) 18:29:32 145.825
Cubesat XI-IV 26 Apr 18:26:41 18:31:58 67° 72° (ENE) 18:37:17 437.490
JAS-2 26 Apr 18:37:09 18:41:39 15° 278° (W) 18:45:37 435.910
PHONESAT 2.4 26 Apr 18:39:26 18:42:09 20° 163° (SSE) 18:44:53 2401.200-2431.200
MOZHAYETS 4 26 Apr 18:50:18 18:54:39 42° 290° (WNW) 18:58:56
CUBESAT XI-V 26 Apr 18:52:48 18:56:13 21° 91° (E) 18:59:45 437.345
GONETS M04 26 Apr 18:55:20 19:03:18 36° 295° (WNW) 19:11:12
Cosmos 2499 26 Apr 18:59:10 19:07:52 65° 93° (E) 19:16:19 435.465 / 435.565
PRISM 26 Apr 19:01:44 19:03:38 13° 88° (E) 19:05:44 437.425
PCSat 26 Apr 19:03:02 19:07:26 25° 250° (WSW) 19:11:42 145.827
DANDE 26 Apr 19:08:07 19:11:27 29° 296° (WNW) 19:15:40 436.750
SO-50 26 Apr 19:11:26 19:15:34 26° 36° (NE) 19:19:45 436.795
STRAND 1 26 Apr 19:22:32 19:26:14 20° 90° (E) 19:30:03 437.568
GOMX 1 26 Apr 19:23:53 19:24:42 11° 57° (ENE) 19:25:44 467.674
M-CUBED/EXP-1 PRIME 26 Apr 19:28:05 19:31:58 34° 101° (E) 19:35:34 437.505
RS-15 26 Apr 19:28:19 19:37:53 31° 356° (N) 19:47:48 29.354- 29.394
VERMONT LUNAR 26 Apr 19:38:23 19:41:20 27° 184° (S) 19:44:16 437.305
BRITE-PL 26 Apr 19:38:54 19:42:01 21° 64° (ENE) 19:45:20 437.365/2234.400
HO-68 26 Apr 19:43:03 19:49:03 31° 58° (ENE) 19:55:13 435.675
SEEDS 26 Apr 19:47:05 19:48:11 11° 59° (ENE) 19:49:30 437.485
DOVE 4 26 Apr 19:53:51 19:56:10 15° 59° (ENE) 19:58:43 437.250
CANX-2 26 Apr 19:55:24 19:58:09 17° 63° (ENE) 20:01:03 2200.000
CUTE-I 26 Apr 19:58:21 20:02:32 22° 269° (W) 20:06:36 437.470
AAUSAT CUBESAT 2 26 Apr 20:01:46 20:02:50 11° 59° (ENE) 20:04:07 437.432
CUTE 1.7 + AOD 2 26 Apr 20:04:07 20:07:06 19° 64° (ENE) 20:10:12 437.475
Cubesat XI-IV 26 Apr 20:08:54 20:12:39 18° 271° (W) 20:16:12 437.490
AUBIESAT-1 26 Apr 20:09:20 20:13:35 85° 108° (ESE) 20:17:26 437.475
PHONESAT 2.4 26 Apr 20:16:41 20:19:51 30° 180° (S) 20:23:02 2401.200-2431.200
CUBESAT XI-V 26 Apr 20:29:31 20:33:57 47° 289° (WNW) 20:38:22 437.345
CINEMA 3 26 Apr 20:29:52 20:32:46 18° 61° (ENE) 20:35:54 145.822/145.860
PRISM 26 Apr 20:35:31 20:39:36 61° 287° (WNW) 20:43:37 437.425
YUBILEINY 26 Apr 20:45:20 20:51:42 22° 56° (ENE) 20:58:20 435.215
UWE-3 26 Apr 20:47:20 20:49:06 12° 58° (ENE) 20:51:04 435.000/436.395/437.385
SO-50 26 Apr 20:51:38 20:56:35 69° 237° (WSW) 21:01:28 436.795
COMPASS 1 26 Apr 20:52:17 20:56:11 37° 70° (ENE) 21:00:09 437.405
Cosmos 2499 26 Apr 20:53:43 21:01:38 34° 295° (WNW) 21:09:09 435.465 / 435.565
FUNcube-1 26 Apr 20:54:28 20:55:51 12° 58° (ENE) 20:57:26 145.935
GOMX 1 26 Apr 20:57:50 21:02:04 82° 74° (ENE) 21:06:34 467.674
STRAND 1 26 Apr 21:00:51 21:05:51 57° 290° (WNW) 21:10:51 437.568
M-CUBED/EXP-1 PRIME 26 Apr 21:03:06 21:06:42 26° 301° (WNW) 21:10:00 437.505
DELFI C3 26 Apr 21:03:52 21:06:27 17° 64° (ENE) 21:09:09 145.870
Oscar 11 26 Apr 21:14:29 21:18:13 29° 67° (ENE) 21:22:01 145.826/435.025
VERMONT LUNAR 26 Apr 21:16:03 21:18:14 16° 200° (SSW) 21:20:21 437.305
BRITE-PL 26 Apr 21:16:23 21:20:20 41° 263° (W) 21:24:28 437.365/2234.400
ZACube-1 26 Apr 21:18:20 21:21:26 19° 63° (ENE) 21:24:41 437.345
SEEDS 26 Apr 21:19:05 21:23:22 87° 77° (ENE) 21:27:41 437.485
DOVE 4 26 Apr 21:29:05 21:33:22 72° 258° (WSW) 21:37:55 437.250
HO-68 26 Apr 21:29:14 21:36:23 65° 257° (WSW) 21:43:34 435.675
CANX-2 26 Apr 21:29:28 21:33:43 56° 260° (W) 21:37:59 2200.000
AAUSAT CUBESAT 2 26 Apr 21:33:36 21:37:50 88° 77° (ENE) 21:42:06 437.432
CUTE 1.7 + AOD 2 26 Apr 21:38:31 21:42:42 50° 261° (W) 21:46:56 437.475
RS-15 26 Apr 21:43:28 21:54:02 43° 28° (NNE) 22:05:10 29.354- 29.394
AUBIESAT-1 26 Apr 21:45:45 21:47:42 13° 308° (NW) 21:49:28 437.475
AISAT 26 Apr 21:45:55 21:47:43 13° 59° (ENE) 21:49:43 437.250
50 SAT 26 Apr 21:47:06 21:48:14 11° 60° (ENE) 21:49:34 437.505
DX 1 26 Apr 21:50:11 21:53:44 26° 65° (ENE) 21:57:21 434.975-435.025
PHONESAT 2.4 26 Apr 21:54:49 21:57:34 21° 197° (SSW) 22:00:18 2401.200-2431.200
CUBEBUG 2 26 Apr 21:56:49 22:01:10 64° 73° (ENE) 22:05:44 437.445
CINEMA 3 26 Apr 22:05:12 22:09:32 59° 260° (W) 22:14:06 145.822/145.860
UWE-3 26 Apr 22:20:33 22:24:57 90° 255° (WSW) 22:29:32 435.000/436.395/437.385
O/OREOS (USA 219) 26 Apr 22:22:17 22:26:18 32° 106° (ESE) 22:30:23 437.305
FUNcube-1 26 Apr 22:27:06 22:31:29 85° 78° (ENE) 22:36:00 145.935
ESTCUBE 1 26 Apr 22:27:27 22:30:25 18° 62° (ENE) 22:33:30 437.505/2401.250
COMPASS 1 26 Apr 22:28:37 22:32:01 23° 268° (W) 22:35:22 437.405
UKube-1 26 Apr 22:30:50 22:35:05 60° 72° (ENE) 22:39:22 .
Cosmos 2491 26 Apr 22:35:02 22:42:49 40° 86° (E) 22:50:48 435.465 / 435.565
DELFI C3 26 Apr 22:37:15 22:41:15 52° 260° (W) 22:45:15 145.870
HUMSAT D 26 Apr 22:39:01 22:43:11 58° 73° (ENE) 22:47:26 437.325/437.525
GOMX 1 26 Apr 22:40:14 22:41:05 10° 277° (W) 22:41:39 467.674
Cosmos 2504 26 Apr 22:40:52 22:42:14 11° 43° (NE) 22:44:06 435.465 / 435.565
YUBILEINY 26 Apr 22:41:14 22:50:05 88° 83° (E) 22:58:48 435.215
TIGRISAT 26 Apr 22:45:53 22:48:10 14° 86° (E) 22:50:39 435.000
UNISAT 6 26 Apr 22:50:21 22:53:06 16° 87° (E) 22:56:01 437.425
Oscar 11 26 Apr 22:50:27 22:54:21 31° 265° (W) 22:58:15 145.826/435.025
ZACube-1 26 Apr 22:53:10 22:57:26 52° 261° (W) 23:01:51 437.345
VELOX 1 26 Apr 23:01:02 23:05:21 61° 73° (ENE) 23:09:44 145.980
CUBEBUG 1 26 Apr 23:03:33 23:07:22 32° 68° (ENE) 23:11:15 437.445
POLYITAN 1 26 Apr 23:08:54 23:09:38 10° 85° (E) 23:10:37 437.675
50 SAT 26 Apr 23:18:26 23:22:28 84° 257° (WSW) 23:26:33 437.505
AISAT 26 Apr 23:19:19 23:23:44 86° 257° (WSW) 23:28:10 437.250
HO-68 26 Apr 23:22:58 23:25:45 12° 279° (W) 23:28:00 435.675
QB50P1 26 Apr 23:25:10 23:27:44 16° 89° (E) 23:30:27 145.935-145.965
DX 1 26 Apr 23:25:51 23:29:51 35° 263° (W) 23:33:52 434.975-435.025
ANTELSAT 26 Apr 23:31:19 23:35:44 38° 97° (E) 23:40:05 437.575/2403.000
CUBEBUG 2 26 Apr 23:35:48 23:38:26 15° 273° (W) 23:40:56 437.445
TISAT 1 26 Apr 23:45:06 23:48:09 20° 64° (ENE) 23:51:19 437.305
QB50P2 26 Apr 23:50:51 23:54:36 29° 95° (E) 23:58:23 145.880/145.840
RS-15 26 Apr 23:56:18 00:07:51 84° 235° (SW) 00:19:53 29.354- 29.394
O/OREOS (USA 219) 27 Apr 00:01:34 00:05:44 33° 305° (NW) 00:09:51 437.305
UWE-3 27 Apr 00:01:45 00:02:20 10° 277° (W) 00:02:39 435.000/436.395/437.385
ESTCUBE 1 27 Apr 00:02:27 00:06:54 59° 259° (W) 00:11:22 437.505/2401.250
FUNcube-1 27 Apr 00:07:19 00:08:35 11° 276° (W) 00:09:36 145.935
NANOSAT C BR1 27 Apr 00:07:55 00:12:01 42° 98° (E) 00:16:05 145.865
UKube-1 27 Apr 00:09:05 00:11:41 15° 271° (W) 00:14:06 .
POPSAT HIP 1 27 Apr 00:11:38 00:15:47 46° 99° (E) 00:19:57 437.405
HUMSAT D 27 Apr 00:16:49 00:19:24 15° 272° (W) 00:21:50 437.325/437.525
SPROUT 27 Apr 00:19:00 00:23:10 53° 72° (ENE) 00:27:22 437.525
TIGRISAT 27 Apr 00:20:49 00:25:33 76° 286° (WNW) 00:30:13 435.000
UNISAT 6 27 Apr 00:25:43 00:30:26 66° 287° (WNW) 00:35:03 437.425
ITUPSAT 1 27 Apr 00:26:27 00:28:16 12° 57° (ENE) 00:30:17 437.325
BUGSAT 1 27 Apr 00:29:48 00:33:50 50° 100° (E) 00:37:56 437.445
Cosmos 2504 27 Apr 00:30:42 00:38:29 48° 71° (ENE) 00:45:45 435.465 / 435.565
Cosmos 2491 27 Apr 00:31:02 00:39:32 53° 288° (WNW) 00:48:04 435.465 / 435.565
YUBILEINY 27 Apr 00:39:33 00:45:51 22° 282° (WNW) 00:51:48 435.215
VELOX 1 27 Apr 00:39:44 00:42:24 15° 271° (W) 00:44:54 145.980
CUBEBUG 1 27 Apr 00:40:02 00:43:47 27° 266° (W) 00:47:28 437.445
DUCHIFAT 1 27 Apr 00:41:22 00:45:41 88° 278° (W) 00:49:58 145.980
POLYITAN 1 27 Apr 00:41:53 00:46:14 84° 286° (WNW) 00:50:34 437.675
BEESAT 27 Apr 00:54:26 00:57:59 22° 63° (ENE) 01:01:39 436.000
SWISSCUBE 27 Apr 00:56:54 01:00:40 24° 64° (ENE) 01:04:32 437.505
QB50P1 27 Apr 00:59:47 01:04:00 56° 288° (WNW) 01:08:13 145.935-145.965
ANTELSAT 27 Apr 01:08:20 01:12:23 28° 294° (WNW) 01:16:19 437.575/2403.000
AIST 1 27 Apr 01:09:35 01:13:49 61° 96° (E) 01:18:03
TISAT 1 27 Apr 01:19:41 01:23:41 43° 262° (W) 01:27:43 437.305
QB50P2 27 Apr 01:26:41 01:30:29 30° 293° (WNW) 01:34:15 145.880/145.840
NANOSAT C BR1 27 Apr 01:44:18 01:47:38 22° 295° (WNW) 01:50:53 145.865
POPSAT HIP 1 27 Apr 01:48:11 01:51:24 20° 296° (WNW) 01:54:32 437.405
SPROUT 27 Apr 01:56:51 01:59:38 16° 271° (W) 02:02:18 437.525
TIGRISAT 27 Apr 01:59:58 02:01:32 11° 303° (WNW) 02:02:53 435.000
ITUPSAT 1 27 Apr 02:00:39 02:05:28 81° 74° (ENE) 02:10:16 437.325
KKS-1 27 Apr 02:05:51 02:09:02 20° 63° (ENE) 02:12:20 437.445
BUGSAT 1 27 Apr 02:06:08 02:09:01 18° 296° (WNW) 02:11:48 437.445
RS-15 27 Apr 02:10:04 02:18:56 25° 257° (WSW) 02:27:30 29.354- 29.394
DUCHIFAT 1 27 Apr 02:19:26 02:20:54 11° 301° (WNW) 02:22:08 145.980
DANDE 27 Apr 02:19:46 02:20:51 10° 49° (NE) 02:22:27 436.750
POLYITAN 1 27 Apr 02:20:14 02:21:30 11° 301° (WNW) 02:22:35 437.675
BEESAT 3 27 Apr 02:20:19 02:22:55 17° 113° (ESE) 02:25:40 437.485
BEESAT 2 27 Apr 02:23:41 02:26:04 15° 112° (ESE) 02:28:36 435.950
Cosmos 2504 27 Apr 02:24:27 02:31:47 39° 274° (W) 02:38:33 435.465 / 435.565
Gurwin Techsat 1B 27 Apr 02:30:26 02:32:46 13° 85° (E) 02:35:22 435.225
BEESAT 27 Apr 02:30:50 02:35:31 53° 260° (W) 02:40:13 436.000
SWISSCUBE 27 Apr 02:33:42 02:38:18 46° 261° (W) 02:42:55 437.505
Cosmos 2491 27 Apr 02:35:25 02:39:11 13° 315° (NW) 02:42:28 435.465 / 435.565
AIST 1 27 Apr 02:49:30 02:51:59 14° 296° (WNW) 02:54:18
Oscar 19 27 Apr 02:52:45 02:57:58 69° 102° (ESE) 03:03:09 437.125/150
STARS 27 Apr 02:56:10 03:00:13 38° 69° (ENE) 03:04:20 437.465
GONETS M04 27 Apr 03:03:59 03:11:54 35° 65° (ENE) 03:19:53
CUSAT 1 27 Apr 03:11:08 03:17:20 28° 63° (ENE) 03:24:19 437.405
ITAMSAT 1 27 Apr 03:30:29 03:35:30 48° 99° (E) 03:40:32 435.822/435.867
AIST 2 27 Apr 03:31:22 03:34:50 25° 115° (ESE) 03:38:23 435.215
KKS-1 27 Apr 03:41:03 03:45:22 50° 260° (W) 03:49:44 437.445
ITUPSAT 1 27 Apr 03:41:43 03:44:03 13° 273° (W) 03:46:09 437.325
BEESAT 3 27 Apr 03:56:29 04:00:33 59° 310° (NW) 04:04:39 437.485
JAS-2 27 Apr 03:57:14 04:00:18 14° 81° (E) 04:03:33 435.910
DANDE 27 Apr 03:59:04 04:05:59 44° 70° (ENE) 04:14:02 436.750
BEESAT 2 27 Apr 03:59:38 04:03:44 66° 309° (NW) 04:07:54 435.950
Gurwin Techsat 1B 27 Apr 04:08:15 04:13:37 90° 54° (NE) 04:18:57 435.225
HORYU 2 27 Apr 04:14:52 04:18:27 23° 93° (E) 04:22:06 437.375
MOZHAYETS 4 27 Apr 04:18:11 04:22:15 31° 67° (ENE) 04:26:22
Oscar 19 27 Apr 04:33:08 04:36:51 20° 300° (WNW) 04:40:25 437.125/150
STARS 27 Apr 04:33:13 04:36:49 24° 267° (W) 04:40:23 437.465
M-CUBED/EXP-1 PRIME 27 Apr 04:46:15 04:48:33 14° 52° (NE) 04:51:01 437.505
Cosmos 2499 27 Apr 04:48:12 04:54:31 26° 61° (ENE) 05:00:39 435.465 / 435.565
CUSAT 1 27 Apr 04:53:12 05:00:45 78° 261° (W) 05:09:07 437.405
GONETS M04 27 Apr 05:00:39 05:09:20 61° 268° (W) 05:17:55
AO-7 27 Apr 05:02:29 05:10:24 46° 99° (E) 05:18:22 29.400- 29.500
AIST 2 27 Apr 05:09:07 05:13:14 44° 314° (NW) 05:17:23 435.215
ITAMSAT 1 27 Apr 05:10:31 05:14:47 26° 297° (WNW) 05:18:58 435.822/435.867
AUBIESAT-1 27 Apr 05:25:24 05:29:15 25° 59° (ENE) 05:33:08 437.475
BEESAT 3 27 Apr 05:37:18 05:39:27 13° 332° (NNW) 05:41:29 437.485
JAS-2 27 Apr 05:40:14 05:46:45 88° 103° (ESE) 05:52:27 435.910
BEESAT 2 27 Apr 05:40:19 05:42:40 14° 331° (NNW) 05:44:57 435.950
DANDE 27 Apr 05:42:17 05:49:23 49° 266° (W) 05:57:25 436.750
Gurwin Techsat 1B 27 Apr 05:49:46 05:52:57 16° 303° (WNW) 05:55:56 435.225
HORYU 2 27 Apr 05:51:02 05:55:17 40° 291° (WNW) 05:59:28 437.375
PRISM 27 Apr 05:54:45 05:57:18 16° 62° (ENE) 05:59:57 437.425
MOZHAYETS 4 27 Apr 05:55:16 05:59:28 32° 265° (W) 06:03:37
CUBESAT XI-V 27 Apr 05:58:58 06:02:53 29° 67° (ENE) 06:06:52 437.345
M-CUBED/EXP-1 PRIME 27 Apr 06:17:53 06:22:43 78° 69° (ENE) 06:27:32 437.505
CUTE-I 27 Apr 06:32:03 06:35:25 17° 88° (E) 06:38:58 437.470
CUSAT 1 27 Apr 06:37:37 06:42:45 19° 277° (W) 06:47:47 437.405
Cosmos 2499 27 Apr 06:40:48 06:48:37 71° 265° (W) 06:55:50 435.465 / 435.565
STRAND 1 27 Apr 06:40:56 06:45:39 40° 68° (ENE) 06:50:25 437.568
Cubesat XI-IV 27 Apr 06:41:46 06:45:41 21° 90° (E) 06:49:45 437.490
O/OREOS (USA 219) 27 Apr 06:50:39 06:53:19 16° 45° (NE) 06:56:07 437.305
AIST 2 27 Apr 06:51:12 06:52:55 12° 336° (NNW) 06:54:33 435.215
AO-7 27 Apr 06:55:24 07:03:18 48° 300° (WNW) 07:11:07 29.400- 29.500
AUBIESAT-1 27 Apr 06:59:05 07:03:46 50° 256° (WSW) 07:08:25 437.475
GONETS M04 27 Apr 07:00:59 07:04:27 12° 288° (WNW) 07:07:17
JAS-2 27 Apr 07:26:32 07:30:56 19° 306° (NW) 07:34:50 435.910
PRISM 27 Apr 07:28:16 07:32:23 56° 259° (W) 07:36:29 437.425
CUBESAT XI-V 27 Apr 07:36:00 07:40:16 35° 264° (W) 07:44:29 437.345
M-CUBED/EXP-1 PRIME 27 Apr 07:55:14 07:58:07 15° 267° (W) 08:00:48 437.505
PCSat 27 Apr 08:04:15 08:08:44 28° 111° (ESE) 08:13:21 145.827
CUTE-I 27 Apr 08:10:48 08:16:07 72° 288° (WNW) 08:21:26 437.470
STRAND 1 27 Apr 08:20:31 08:24:59 30° 266° (W) 08:29:25 437.568
Cubesat XI-IV 27 Apr 08:21:00 08:26:15 59° 290° (WNW) 08:31:28 437.490
O/OREOS (USA 219) 27 Apr 08:28:54 08:33:25 81° 247° (WSW) 08:37:53 437.305
Cosmos 2499 27 Apr 08:36:46 08:40:17 13° 286° (WNW) 08:43:15 435.465 / 435.565
Cosmos 2491 27 Apr 08:41:13 08:47:54 24° 58° (ENE) 08:54:51 435.465 / 435.565
AO-7 27 Apr 08:50:09 08:54:14 14° 322° (NW) 08:58:01 29.400- 29.500
HO-68 27 Apr 08:54:38 08:59:49 22° 88° (E) 09:05:14 435.675
GOMX 1 27 Apr 08:56:24 09:00:25 23° 91° (E) 09:04:42 467.674
SEEDS 27 Apr 09:02:39 09:04:14 12° 86° (E) 09:06:02 437.485
CANX-2 27 Apr 09:12:37 09:15:49 21° 91° (E) 09:19:04 2200.000
AAUSAT CUBESAT 2 27 Apr 09:15:59 09:17:21 12° 86° (E) 09:18:57 437.432
BRITE-PL 27 Apr 09:16:37 09:21:34 49° 98° (E) 09:26:52 437.365/2234.400
CUTE 1.7 + AOD 2 27 Apr 09:21:21 09:24:45 23° 92° (E) 09:28:11 437.475
